TimeCST,TemperatureF,Dew PointF,Humidity,Sea Level PressureIn,VisibilityMPH,Wind Direction,Wind SpeedMPH,Gust SpeedMPH,PrecipitationIn,Events,Conditions,WindDirDegrees,DateUTC
12:15 AM,56.5,34.7,44,30.12,10.0,SW,8.1,-,N/A,,Clear,220,2013-01-25 06:15:00
12:35 AM,53.1,34.2,49,30.12,10.0,NNW,3.5,-,N/A,,Clear,330,2013-01-25 06:35:00
12:55 AM,54.7,34.7,47,30.12,10.0,Calm,Calm,-,N/A,,Clear,0,2013-01-25 06:55:00
1:15 AM,56.8,35.1,44,30.12,10.0,WSW,11.5,-,N/A,,Clear,240,2013-01-25 07:15:00
1:35 AM,55.8,34.9,45,30.11,10.0,WSW,10.4,-,N/A,,Clear,240,2013-01-25 07:35:00
1:55 AM,55.9,34.7,45,30.11,10.0,WSW,11.5,-,N/A,,Clear,240,2013-01-25 07:55:00
2:15 AM,54.7,34.7,47,30.11,10.0,WSW,9.2,-,N/A,,Clear,240,2013-01-25 08:15:00
2:35 AM,53.4,34.7,49,30.11,10.0,WSW,9.2,-,N/A,,Clear,240,2013-01-25 08:35:00
2:55 AM,50.9,34.7,54,30.11,10.0,SW,8.1,-,N/A,,Clear,220,2013-01-25 08:55:00
3:15 AM,49.5,35.1,58,30.11,10.0,SW,9.2,-,N/A,,Clear,220,2013-01-25 09:15:00
3:35 AM,48.2,35.2,61,30.11,10.0,West,4.6,-,N/A,,Clear,260,2013-01-25 09:35:00
3:55 AM,48.4,35.6,61,30.11,10.0,WSW,8.1,-,N/A,,Clear,250,2013-01-25 09:55:00
4:15 AM,51.3,35.2,54,30.10,10.0,WSW,9.2,-,N/A,,Clear,240,2013-01-25 10:15:00
4:35 AM,52.0,35.1,53,30.11,10.0,West,9.2,-,N/A,,Clear,260,2013-01-25 10:35:00
4:55 AM,52.0,35.2,53,30.11,10.0,WNW,4.6,-,N/A,,Clear,290,2013-01-25 10:55:00
5:15 AM,52.5,34.9,51,30.12,10.0,WNW,3.5,-,N/A,,Clear,290,2013-01-25 11:15:00
5:35 AM,51.8,34.7,52,30.12,10.0,NW,8.1,-,N/A,,Clear,320,2013-01-25 11:35:00
6:15 AM,48.6,34.7,59,30.13,10.0,NE,3.5,-,N/A,,Clear,50,2013-01-25 12:15:00
6:35 AM,47.8,34.9,61,30.13,10.0,South,4.6,-,N/A,,Clear,170,2013-01-25 12:35:00
6:55 AM,47.5,34.9,62,30.13,10.0,SSW,4.6,-,N/A,,Clear,200,2013-01-25 12:55:00
7:35 AM,46.8,35.1,64,30.15,10.0,West,5.8,-,N/A,,Clear,270,2013-01-25 13:35:00
7:55 AM,46.6,35.6,66,30.16,10.0,NW,8.1,-,N/A,,Clear,310,2013-01-25 13:55:00
8:15 AM,48.2,36.0,63,30.17,10.0,NNW,5.8,-,N/A,,Clear,330,2013-01-25 14:15:00
8:35 AM,47.5,36.0,64,30.17,10.0,NNW,3.5,-,N/A,,Clear,340,2013-01-25 14:35:00
8:55 AM,50.2,37.2,61,30.17,10.0,WSW,6.9,-,N/A,,Clear,250,2013-01-25 14:55:00
9:15 AM,51.8,37.6,58,30.17,10.0,West,3.5,-,N/A,,Clear,280,2013-01-25 15:15:00
9:35 AM,54.0,39.0,57,30.17,10.0,WNW,3.5,-,N/A,,Clear,290,2013-01-25 15:35:00
10:35 AM,65.3,36.1,34,30.20,10.0,NW,10.4,-,N/A,,Clear,320,2013-01-25 16:35:00
10:55 AM,66.0,36.1,33,30.20,10.0,NNW,8.1,-,N/A,,Clear,340,2013-01-25 16:55:00
11:15 AM,64.9,36.5,35,30.20,10.0,WNW,6.9,-,N/A,,Clear,300,2013-01-25 17:15:00
11:35 AM,65.5,36.1,34,30.20,10.0,NW,5.8,-,N/A,,Clear,310,2013-01-25 17:35:00
11:55 AM,67.5,36.5,32,30.19,10.0,WNW,5.8,-,N/A,,Clear,300,2013-01-25 17:55:00
12:15 PM,68.7,36.5,31,30.20,10.0,West,6.9,-,N/A,,Clear,270,2013-01-25 18:15:00
12:35 PM,70.2,36.5,29,30.18,10.0,NNW,6.9,-,N/A,,Clear,340,2013-01-25 18:35:00
12:55 PM,70.3,36.1,29,30.16,10.0,North,4.6,-,N/A,,Clear,10,2013-01-25 18:55:00
1:15 PM,71.6,36.3,28,30.16,10.0,NE,4.6,-,N/A,,Clear,40,2013-01-25 19:15:00
1:35 PM,72.5,36.3,27,30.13,10.0,NW,3.5,-,N/A,,Clear,310,2013-01-25 19:35:00
1:55 PM,73.4,36.5,26,30.12,10.0,NNW,3.5,-,N/A,,Clear,340,2013-01-25 19:55:00
2:15 PM,73.6,36.3,26,30.12,10.0,NNW,3.5,-,N/A,,Clear,340,2013-01-25 20:15:00
3:15 PM,73.0,37.0,27,30.09,10.0,NE,4.6,-,N/A,,Clear,40,2013-01-25 21:15:00
3:35 PM,73.6,38.1,28,30.09,10.0,NE,5.8,-,N/A,,Clear,40,2013-01-25 21:35:00
4:15 PM,72.9,38.5,29,30.07,10.0,ENE,3.5,-,N/A,,Clear,60,2013-01-25 22:15:00
4:35 PM,73.4,38.8,29,30.07,10.0,ENE,5.8,-,N/A,,Clear,70,2013-01-25 22:35:00
4:55 PM,73.0,39.2,29,30.08,10.0,Calm,Calm,-,N/A,,Clear,0,2013-01-25 22:55:00
5:55 PM,73.9,39.9,29,30.09,10.0,Calm,Calm,-,N/A,,Scattered Clouds,0,2013-01-25 23:55:00
6:15 PM,72.5,39.7,31,30.09,10.0,Calm,Calm,-,N/A,,Clear,0,2013-01-26 00:15:00
6:35 PM,68.7,40.1,35,30.09,10.0,NNE,4.6,-,N/A,,Clear,30,2013-01-26 00:35:00
6:55 PM,64.6,41.4,43,30.10,10.0,NNW,6.9,-,N/A,,Clear,330,2013-01-26 00:55:00
7:35 PM,64.0,43.3,47,30.12,10.0,NNW,4.6,-,N/A,,Scattered Clouds,330,2013-01-26 01:35:00
7:55 PM,61.7,43.2,51,30.12,10.0,NNW,4.6,-,N/A,,Scattered Clouds,330,2013-01-26 01:55:00
8:15 PM,59.2,43.7,57,30.12,10.0,NNW,6.9,-,N/A,,Clear,330,2013-01-26 02:15:00
8:35 PM,57.2,43.7,61,30.12,10.0,NNW,6.9,-,N/A,,Clear,330,2013-01-26 02:35:00
8:55 PM,58.3,43.7,58,30.12,10.0,NE,8.1,-,N/A,,Clear,50,2013-01-26 02:55:00
9:15 PM,57.2,42.8,59,30.13,10.0,ENE,8.1,-,N/A,,Clear,70,2013-01-26 03:15:00
9:35 PM,56.5,40.5,55,30.13,10.0,East,8.1,-,N/A,,Clear,90,2013-01-26 03:35:00
9:55 PM,56.3,39.0,52,30.14,10.0,ESE,4.6,-,N/A,,Clear,110,2013-01-26 03:55:00
10:15 PM,55.4,38.3,53,30.14,10.0,East,3.5,-,N/A,,Clear,100,2013-01-26 04:15:00
10:35 PM,54.9,38.3,54,30.14,10.0,East,4.6,-,N/A,,Clear,100,2013-01-26 04:35:00
10:55 PM,53.4,38.5,57,30.15,10.0,ENE,5.8,-,N/A,,Scattered Clouds,60,2013-01-26 04:55:00
11:15 PM,54.5,38.5,55,30.15,10.0,ENE,5.8,-,N/A,,Overcast,60,2013-01-26 05:15:00
11:35 PM,53.6,38.5,57,30.15,10.0,ENE,4.6,-,N/A,,Mostly Cloudy,60,2013-01-26 05:35:00
11:55 PM,52.9,38.3,58,30.15,10.0,NNE,4.6,-,N/A,,Scattered Clouds,30,2013-01-26 05:55:00